UAL9 MTPP-SKCG

Flight info

Callsign UAL9
Flight time N/A
Altitude 36000
Route MTPP/10 N0451F360 DCT BOMEP UQ301 LENOM UG444 LIDOL UM597 ERIKO UW5 BAQ BAQ4B SKCG/01
Aircraft A321/M-V/N

Departure

Time N/A
Airport Toussaint Louverture International Airport (MTPP)

Arrival

Time 2026-04-18 05:26
Airport Rafael Nuñez International Airport (SKCG)
Time Latitude Longitude Altitude Speed Heading
2026-04-18 05:26 10.44573 -75.51551 13 ft 0 kts 271°
2026-04-18 05:42 10.44573 -75.51532 12 ft 4 kts 271°
2026-04-18 05:43 10.44572 -75.51505 12 ft 4 kts 271°
2026-04-18 05:43 10.44572 -75.51480 13 ft 4 kts 258°
2026-04-18 05:43 10.44583 -75.51461 13 ft 4 kts 198°
2026-04-18 05:43 10.44604 -75.51457 12 ft 1 kts 184°
2026-04-18 05:44 10.44608 -75.51457 12 ft 0 kts 184°
2026-04-18 05:45 10.44604 -75.51457 12 ft 3 kts 184°
2026-04-18 05:45 10.44555 -75.51441 13 ft 12 kts 135°
2026-04-18 05:45 10.44542 -75.51323 12 ft 22 kts 100°
2026-04-18 05:46 10.44444 -75.51280 12 ft 17 kts 184°
2026-04-18 05:46 10.44326 -75.51288 10 ft 17 kts 182°
2026-04-18 05:46 10.44203 -75.51292 9 ft 19 kts 182°
2026-04-18 05:46 10.44073 -75.51299 8 ft 19 kts 183°
2026-04-18 05:47 10.43946 -75.51302 11 ft 18 kts 182°
2026-04-18 05:47 10.43823 -75.51307 10 ft 18 kts 182°
2026-04-18 05:47 10.43700 -75.51312 9 ft 18 kts 183°
2026-04-18 05:47 10.43553 -75.51318 11 ft 24 kts 181°
2026-04-18 05:48 10.43374 -75.51325 15 ft 19 kts 182°
2026-04-18 05:48 10.43268 -75.51324 13 ft 11 kts 174°
2026-04-18 05:48 10.43219 -75.51305 13 ft 5 kts 146°
2026-04-18 05:48 10.43213 -75.51302 12 ft 0 kts 145°
2026-04-18 05:49 10.43212 -75.51301 12 ft 1 kts 144°
2026-04-18 05:49 10.43174 -75.51264 13 ft 14 kts 137°
2026-04-18 05:49 10.43084 -75.51245 13 ft 8 kts 221°
2026-04-18 05:49 10.43070 -75.51291 12 ft 6 kts 266°
2026-04-18 05:50 10.43076 -75.51323 14 ft 4 kts 294°
2026-04-18 05:50 10.43095 -75.51337 13 ft 5 kts 335°
2026-04-18 05:50 10.43160 -75.51334 12 ft 13 kts
2026-04-18 05:50 10.43196 -75.51333 12 ft 0 kts
2026-04-18 05:51 10.43496 -75.51320 13 ft 91 kts
2026-04-18 05:51 10.44402 -75.51284 19 ft 164 kts
2026-04-18 05:52 10.45617 -75.51226 722 ft 174 kts
2026-04-18 05:52 10.46811 -75.51271 1728 ft 169 kts 350°
2026-04-18 05:52 10.47924 -75.51660 2176 ft 194 kts 335°
2026-04-18 05:52 10.49125 -75.52539 2650 ft 216 kts 312°
2026-04-18 05:53 10.49979 -75.53889 2604 ft 257 kts 290°
2026-04-18 05:53 10.50220 -75.55776 2990 ft 273 kts 262°
2026-04-18 05:53 10.49594 -75.57602 3774 ft 279 kts 236°
2026-04-18 05:53 10.48291 -75.59119 4470 ft 282 kts 224°
2026-04-18 05:54 10.47035 -75.60616 5441 ft 280 kts 239°
2026-04-18 05:54 10.46240 -75.62393 6235 ft 280 kts 249°
2026-04-18 05:54 10.45556 -75.64253 6978 ft 282 kts 248°
2026-04-18 05:54 10.44715 -75.66049 7742 ft 282 kts 240°
2026-04-18 05:55 10.43656 -75.67726 8504 ft 283 kts 234°
2026-04-18 05:55 10.42411 -75.69301 9233 ft 286 kts 229°
2026-04-18 05:55 10.41041 -75.70783 9946 ft 288 kts 225°
2026-04-18 05:55 10.39539 -75.72212 10237 ft 307 kts 222°
2026-04-18 05:56 10.38422 -75.73156 10362 ft 320 kts 219°
2026-04-18 05:56 10.36574 -75.74516 10842 ft 328 kts 214°
2026-04-18 05:56 10.34642 -75.75722 11445 ft 332 kts 210°
2026-04-18 05:56 10.32617 -75.76866 12066 ft 335 kts 214°
2026-04-18 05:57 10.30032 -75.80718 13264 ft 342 kts 258°
2026-04-18 05:57 10.30018 -75.83144 13797 ft 348 kts 281°
2026-04-18 05:57 10.30963 -75.85404 14269 ft 353 kts 305°
2026-04-18 05:58 10.32683 -75.87193 14804 ft 356 kts 318°
2026-04-18 05:58 10.34486 -75.88926 15343 ft 357 kts 312°
2026-04-18 05:58 10.36101 -75.90843 15938 ft 357 kts 306°
2026-04-18 05:58 10.37464 -75.92953 16462 ft 359 kts 298°
2026-04-18 05:59 10.38544 -75.95262 16973 ft 362 kts 291°
2026-04-18 05:59 10.39461 -75.97652 17538 ft 364 kts 291°
2026-04-18 05:59 10.40380 -76.00011 18117 ft 364 kts 292°
2026-04-18 05:59 10.41326 -76.02410 18572 ft 366 kts 292°
2026-04-18 06:00 10.42277 -76.04817 18997 ft 369 kts 292°
2026-04-18 06:00 10.43241 -76.07257 19332 ft 375 kts 292°
2026-04-18 06:00 10.44222 -76.09725 19762 ft 377 kts 292°
2026-04-18 06:00 10.45207 -76.12200 20134 ft 381 kts 292°
2026-04-18 06:01 10.46203 -76.14709 20515 ft 384 kts 293°
2026-04-18 06:01 10.47202 -76.17234 20881 ft 388 kts 292°
2026-04-18 06:01 10.48210 -76.19788 21215 ft 392 kts 292°
2026-04-18 06:01 10.49226 -76.22374 21575 ft 395 kts 293°
2026-04-18 06:02 10.50250 -76.24978 21961 ft 398 kts 292°
2026-04-18 06:02 10.51281 -76.27599 22305 ft 401 kts 292°
2026-04-18 06:02 10.52320 -76.30236 22631 ft 404 kts 292°
2026-04-18 06:02 10.53372 -76.32903 22963 ft 407 kts 294°
2026-04-18 06:03 10.54418 -76.35551 23283 ft 410 kts 292°
2026-04-18 06:03 10.55624 -76.38179 23574 ft 412 kts 301°
2026-04-18 06:03 10.57011 -76.40731 23866 ft 413 kts 301°
2026-04-18 06:03 10.58406 -76.43294 24186 ft 415 kts 301°
2026-04-18 06:04 10.59805 -76.45861 24517 ft 415 kts 301°
2026-04-18 06:04 10.61208 -76.48431 24847 ft 416 kts 300°
2026-04-18 06:04 10.62609 -76.51010 25138 ft 418 kts 300°
2026-04-18 06:04 10.64012 -76.53608 25425 ft 420 kts 300°
2026-04-18 06:05 10.65419 -76.56212 25728 ft 421 kts 300°
2026-04-18 06:05 10.66833 -76.58823 26041 ft 422 kts 300°
2026-04-18 06:05 10.68253 -76.61441 26347 ft 423 kts 300°
2026-04-18 06:05 10.69676 -76.64064 26658 ft 425 kts 300°
2026-04-18 06:06 10.71086 -76.66667 26966 ft 426 kts 300°
2026-04-18 06:06 10.72517 -76.69306 27259 ft 427 kts 300°
2026-04-18 06:06 10.73955 -76.71957 27581 ft 429 kts 300°
2026-04-18 06:06 10.75395 -76.74615 27891 ft 430 kts 300°
2026-04-18 06:07 10.76837 -76.77286 28191 ft 431 kts 300°
2026-04-18 06:07 10.78285 -76.79966 28494 ft 433 kts 300°
2026-04-18 06:07 10.79739 -76.82658 28779 ft 434 kts 300°
2026-04-18 06:07 10.81192 -76.85351 29060 ft 435 kts 300°
2026-04-18 06:08 10.82653 -76.88058 29336 ft 437 kts 300°
2026-04-18 06:08 10.84120 -76.90776 29612 ft 439 kts 300°
2026-04-18 06:08 10.85595 -76.93502 29883 ft 440 kts 300°
2026-04-18 06:08 10.87071 -76.96230 30119 ft 442 kts 300°
2026-04-18 06:09 10.88559 -76.98982 30337 ft 443 kts 300°
2026-04-18 06:09 10.90044 -77.01737 30564 ft 445 kts 300°
2026-04-18 06:09 10.91538 -77.04502 30779 ft 446 kts 300°
2026-04-18 06:09 10.93015 -77.07235 30996 ft 448 kts 300°
2026-04-18 06:10 10.94515 -77.10016 31217 ft 449 kts 299°
2026-04-18 06:10 10.96014 -77.12796 31528 ft 448 kts 299°
2026-04-18 06:10 10.97517 -77.15581 31849 ft 446 kts 299°
2026-04-18 06:10 10.99005 -77.18341 32188 ft 445 kts 299°
2026-04-18 06:11 11.00492 -77.21102 32527 ft 443 kts 299°
2026-04-18 06:11 11.01973 -77.23849 32853 ft 442 kts 300°
2026-04-18 06:11 11.03454 -77.26595 33153 ft 442 kts 300°
2026-04-18 06:11 11.04928 -77.29333 33434 ft 442 kts 300°
2026-04-18 06:12 11.06406 -77.32084 33731 ft 441 kts 300°
2026-04-18 06:12 11.07880 -77.34822 34028 ft 441 kts 300°
2026-04-18 06:12 11.09349 -77.37555 34290 ft 440 kts 300°
2026-04-18 06:12 11.10817 -77.40281 34559 ft 439 kts 300°
2026-04-18 06:13 11.12284 -77.43006 34828 ft 438 kts 300°
2026-04-18 06:13 11.13747 -77.45727 35091 ft 437 kts 299°
2026-04-18 06:13 11.15185 -77.48403 35360 ft 436 kts 299°
2026-04-18 06:13 11.16635 -77.51108 35636 ft 435 kts 299°
2026-04-18 06:14 11.18085 -77.53812 35855 ft 435 kts 299°
2026-04-18 06:14 11.20954 -77.59158 35928 ft 425 kts 299°
2026-04-18 06:15 11.23788 -77.64427 35928 ft 423 kts 299°
2026-04-18 06:15 11.26609 -77.69694 35930 ft 423 kts 299°
2026-04-18 06:16 11.29434 -77.74960 35931 ft 424 kts 299°
2026-04-18 06:16 11.32260 -77.80230 35932 ft 424 kts 299°
2026-04-18 06:17 11.35090 -77.85504 35936 ft 424 kts 299°
2026-04-18 06:17 11.37912 -77.90782 35938 ft 424 kts 299°
2026-04-18 06:18 11.40736 -77.96065 35937 ft 424 kts 300°
2026-04-18 06:18 11.43558 -78.01348 35936 ft 424 kts 300°
2026-04-18 06:19 11.46385 -78.06632 35936 ft 425 kts 300°
2026-04-18 06:19 11.49216 -78.11926 35936 ft 425 kts 300°
2026-04-18 06:20 11.52049 -78.17231 35936 ft 426 kts 300°
2026-04-18 06:20 11.54869 -78.22509 35938 ft 426 kts 300°
2026-04-18 06:21 11.57700 -78.27819 35949 ft 426 kts 300°
2026-04-18 06:21 11.60531 -78.33135 35951 ft 426 kts 300°
2026-04-18 06:22 11.63352 -78.38447 35951 ft 426 kts 300°
2026-04-18 06:22 11.66179 -78.43756 35949 ft 426 kts 300°
2026-04-18 06:23 11.69002 -78.49073 35949 ft 426 kts 300°
2026-04-18 06:23 11.71820 -78.54384 35949 ft 426 kts 300°
2026-04-18 06:24 11.74649 -78.59693 35948 ft 426 kts 300°
2026-04-18 06:24 11.77476 -78.65010 35946 ft 426 kts 300°
2026-04-18 06:25 11.80151 -78.70397 35947 ft 427 kts 291°
2026-04-18 06:25 11.81766 -78.76235 35944 ft 428 kts 287°
2026-04-18 06:26 11.83322 -78.82093 35940 ft 428 kts 287°
2026-04-18 06:26 11.84889 -78.87964 35941 ft 428 kts 287°
2026-04-18 06:27 11.86436 -78.93800 35940 ft 428 kts 287°
2026-04-18 06:27 11.87995 -78.99672 35939 ft 429 kts 287°
2026-04-18 06:28 11.89549 -79.05548 35940 ft 429 kts 287°
2026-04-18 06:28 11.91105 -79.11432 35934 ft 429 kts 287°
2026-04-18 06:29 11.92665 -79.17306 35938 ft 429 kts 287°
2026-04-18 06:29 11.94218 -79.23184 35935 ft 428 kts 287°
2026-04-18 06:30 11.95765 -79.29061 35937 ft 428 kts 287°
2026-04-18 06:30 11.97316 -79.34938 35937 ft 428 kts 287°
2026-04-18 06:31 11.98868 -79.40810 35935 ft 429 kts 287°
2026-04-18 06:31 12.00403 -79.46661 35932 ft 429 kts 287°
2026-04-18 06:32 12.01944 -79.52540 35935 ft 429 kts 287°
2026-04-18 06:32 12.03489 -79.58417 35936 ft 429 kts 287°
2026-04-18 06:33 12.05035 -79.64316 35938 ft 429 kts 287°
2026-04-18 06:33 12.06577 -79.70209 35941 ft 429 kts 287°
2026-04-18 06:34 12.08129 -79.76102 35946 ft 429 kts 287°
2026-04-18 06:34 12.09666 -79.81951 35945 ft 429 kts 287°
2026-04-18 06:35 12.11202 -79.87848 35944 ft 429 kts 287°
2026-04-18 06:35 12.12741 -79.93740 35947 ft 429 kts 287°
2026-04-18 06:36 12.14285 -79.99641 35949 ft 429 kts 287°
2026-04-18 06:36 12.15821 -80.05542 35947 ft 429 kts 287°
2026-04-18 06:37 12.17353 -80.11447 35952 ft 429 kts 287°
2026-04-18 06:37 12.18883 -80.17343 35947 ft 429 kts 287°
2026-04-18 06:38 12.20410 -80.23200 35942 ft 429 kts 287°
2026-04-18 06:38 12.21945 -80.29088 35943 ft 429 kts 287°
2026-04-18 06:39 12.23471 -80.34979 35947 ft 429 kts 287°
2026-04-18 06:39 12.24996 -80.40869 35947 ft 428 kts 287°
2026-04-18 06:40 12.26521 -80.46760 35946 ft 428 kts 287°
2026-04-18 06:40 12.28035 -80.52605 35945 ft 428 kts 287°
2026-04-18 06:41 12.29560 -80.58491 35942 ft 428 kts 287°
2026-04-18 06:41 12.31083 -80.64386 35942 ft 429 kts 287°
2026-04-18 06:42 12.32601 -80.70278 35946 ft 429 kts 287°
2026-04-18 06:42 12.34124 -80.76180 35948 ft 429 kts 287°
2026-04-18 06:43 12.35644 -80.82073 35946 ft 429 kts 287°
2026-04-18 06:43 12.37162 -80.87972 35950 ft 429 kts 287°
2026-04-18 06:44 12.38677 -80.93877 35944 ft 429 kts 287°
2026-04-18 06:44 12.40185 -80.99736 35948 ft 429 kts 287°
2026-04-18 06:45 12.41703 -81.05654 35948 ft 429 kts 287°
2026-04-18 06:45 12.43217 -81.11563 35952 ft 429 kts 287°
2026-04-18 06:46 12.44470 -81.16470 35953 ft 429 kts 287°
2026-04-18 06:46 12.45985 -81.22390 35954 ft 429 kts 287°
2026-04-18 06:47 12.47498 -81.28301 35951 ft 429 kts 287°
2026-04-18 06:47 12.48999 -81.34169 35954 ft 429 kts 287°
2026-04-18 06:48 12.50511 -81.40072 35956 ft 429 kts 287°
2026-04-18 06:48 12.52019 -81.45977 35955 ft 429 kts 287°
2026-04-18 06:49 12.53519 -81.51878 35953 ft 429 kts 287°
2026-04-18 06:49 12.55014 -81.57783 35978 ft 428 kts 287°
2026-04-18 06:50 12.56509 -81.63685 35978 ft 428 kts 287°
2026-04-18 06:50 12.58280 -81.69468 35972 ft 424 kts 299°
2026-04-18 06:51 12.61606 -81.74352 35974 ft 417 kts 314°
2026-04-18 06:51 12.65501 -81.78763 35970 ft 417 kts 314°
2026-04-18 06:52 12.69378 -81.83190 35946 ft 417 kts 314°
2026-04-18 06:52 12.73249 -81.87622 35956 ft 417 kts 314°
2026-04-18 06:53 12.77120 -81.92046 35949 ft 417 kts 314°
2026-04-18 06:53 12.80963 -81.96440 35960 ft 417 kts 314°
2026-04-18 06:54 12.84834 -82.00871 35956 ft 417 kts 314°
2026-04-18 06:54 12.88704 -82.05293 35952 ft 417 kts 314°
2026-04-18 06:55 12.92580 -82.09721 35956 ft 417 kts 314°
2026-04-18 06:55 12.96449 -82.14151 35946 ft 416 kts 314°
2026-04-18 06:56 13.00304 -82.18570 35950 ft 416 kts 314°
2026-04-18 06:56 13.04170 -82.22997 35960 ft 416 kts 314°
2026-04-18 06:57 13.08002 -82.27385 35952 ft 415 kts 314°
2026-04-18 06:57 13.13774 -82.34015 35952 ft 415 kts 314°
2026-04-18 06:58 13.17614 -82.38421 35948 ft 414 kts 314°
2026-04-18 06:58 13.21456 -82.42841 35941 ft 414 kts 314°
2026-04-18 06:59 13.25289 -82.47255 35938 ft 414 kts 314°
2026-04-18 06:59 13.29130 -82.51666 35939 ft 414 kts 314°
2026-04-18 07:00 13.32978 -82.56087 35940 ft 415 kts 314°
2026-04-18 07:00 13.36795 -82.60476 35941 ft 415 kts 314°
2026-04-18 07:01 13.40637 -82.64901 35958 ft 415 kts 314°
2026-04-18 07:01 13.44478 -82.69334 35962 ft 415 kts 314°
2026-04-18 07:02 13.48310 -82.73752 35953 ft 414 kts 314°
2026-04-18 07:02 13.52148 -82.78176 35953 ft 414 kts 314°
2026-04-18 07:03 13.55980 -82.82599 35951 ft 414 kts 314°
2026-04-18 07:03 13.59801 -82.87011 35951 ft 413 kts 314°
2026-04-18 07:04 13.63627 -82.91429 35958 ft 413 kts 314°
2026-04-18 07:04 13.67412 -82.95805 35952 ft 413 kts 314°
2026-04-18 07:05 13.71229 -83.00223 35956 ft 413 kts 314°
2026-04-18 07:05 13.75046 -83.04638 35956 ft 413 kts 314°
2026-04-18 07:06 13.78859 -83.09043 35953 ft 412 kts 314°
2026-04-18 07:06 13.82670 -83.13451 35942 ft 412 kts 314°
2026-04-18 07:07 13.86474 -83.17857 35953 ft 411 kts 314°
2026-04-18 07:07 13.90266 -83.22260 35957 ft 411 kts 314°
2026-04-18 07:08 13.94061 -83.26663 35954 ft 411 kts 314°
2026-04-18 07:08 13.97851 -83.31070 35956 ft 411 kts 314°
2026-04-18 07:09 14.01640 -83.35473 35957 ft 411 kts 314°
2026-04-18 07:09 14.05381 -83.39880 35956 ft 411 kts 311°
2026-04-18 07:10 14.08892 -83.44531 35953 ft 412 kts 309°
2026-04-18 07:10 14.12294 -83.49280 35955 ft 412 kts 309°
2026-04-18 07:11 14.15719 -83.54014 35954 ft 412 kts 309°
2026-04-18 07:11 14.19181 -83.58711 35961 ft 411 kts 310°
2026-04-18 07:12 14.22658 -83.63402 35964 ft 411 kts 310°
2026-04-18 07:12 14.26102 -83.68054 35961 ft 411 kts 310°
2026-04-18 07:13 14.29562 -83.72751 35966 ft 411 kts 310°
2026-04-18 07:13 14.33017 -83.77448 35967 ft 411 kts 310°
2026-04-18 07:14 14.36467 -83.82134 35963 ft 411 kts 310°
2026-04-18 07:14 14.39921 -83.86828 35963 ft 411 kts 310°
2026-04-18 07:15 14.43368 -83.91526 35961 ft 410 kts 310°
2026-04-18 07:15 14.46812 -83.96224 35950 ft 410 kts 310°
2026-04-18 07:16 14.50235 -84.00893 35955 ft 410 kts 310°
2026-04-18 07:16 14.53684 -84.05592 35963 ft 410 kts 310°
2026-04-18 07:17 14.57131 -84.10289 35967 ft 410 kts 310°
2026-04-18 07:17 14.60576 -84.14983 35960 ft 410 kts 310°
2026-04-18 07:18 14.64022 -84.19684 35960 ft 410 kts 309°
2026-04-18 07:18 14.67458 -84.24395 35957 ft 410 kts 309°
2026-04-18 07:19 14.70873 -84.29070 35960 ft 410 kts 310°
2026-04-18 07:19 14.74312 -84.33769 35963 ft 410 kts 310°
2026-04-18 07:20 14.77751 -84.38469 35967 ft 410 kts 310°
2026-04-18 07:20 14.81183 -84.43176 35968 ft 410 kts 309°
2026-04-18 07:21 14.84610 -84.47873 35961 ft 409 kts 310°
2026-04-18 07:21 14.88042 -84.52578 35958 ft 409 kts 309°
2026-04-18 07:22 14.91463 -84.57288 35972 ft 409 kts 309°
2026-04-18 07:22 14.94892 -84.61998 35964 ft 409 kts 310°
2026-04-18 07:23 14.98296 -84.66670 35962 ft 409 kts 310°
2026-04-18 07:23 15.01721 -84.71372 35971 ft 409 kts 309°
2026-04-18 07:24 15.05140 -84.76078 35965 ft 409 kts 309°
2026-04-18 07:24 15.08558 -84.80786 35967 ft 408 kts 309°
2026-04-18 07:25 15.11969 -84.85473 35970 ft 408 kts 309°
2026-04-18 07:25 15.15380 -84.90173 35982 ft 408 kts 310°
2026-04-18 07:26 15.18789 -84.94875 35970 ft 408 kts 309°
2026-04-18 07:26 15.22173 -84.99546 35981 ft 408 kts 309°
2026-04-18 07:27 15.25571 -85.04236 35984 ft 408 kts 310°
2026-04-18 07:27 15.28975 -85.08933 35992 ft 407 kts 309°
2026-04-18 07:28 15.32364 -85.13628 36006 ft 406 kts 309°
2026-04-18 07:28 15.35751 -85.18318 36004 ft 406 kts 309°
2026-04-18 07:29 15.39137 -85.23001 35985 ft 406 kts 309°
2026-04-18 07:29 15.42505 -85.27655 35999 ft 406 kts 309°
2026-04-18 07:30 15.45893 -85.32341 35992 ft 406 kts 309°
2026-04-18 07:30 15.49274 -85.37024 35993 ft 405 kts 309°
2026-04-18 07:31 15.52650 -85.41709 35992 ft 405 kts 309°
2026-04-18 07:31 15.56021 -85.46400 36001 ft 405 kts 309°
2026-04-18 07:32 15.59393 -85.51087 36001 ft 405 kts 309°
2026-04-18 07:32 15.62760 -85.55767 35986 ft 405 kts 309°
2026-04-18 07:33 15.66129 -85.60452 35986 ft 405 kts 309°
2026-04-18 07:33 15.69497 -85.65138 35987 ft 405 kts 309°
2026-04-18 07:34 15.72866 -85.69831 35981 ft 405 kts 309°
2026-04-18 07:34 15.76211 -85.74492 35965 ft 405 kts 309°
2026-04-18 07:35 15.79576 -85.79175 35975 ft 405 kts 309°
2026-04-18 07:35 15.82941 -85.83863 35974 ft 405 kts 309°
2026-04-18 07:36 15.86296 -85.88556 35968 ft 405 kts 309°
2026-04-18 07:36 15.89090 -85.92463 35956 ft 405 kts 309°
2026-04-18 07:37 15.92450 -85.97165 35967 ft 405 kts 309°
2026-04-18 07:37 15.95808 -86.01865 35965 ft 405 kts 309°
2026-04-18 07:38 15.99160 -86.06552 35969 ft 405 kts 309°
2026-04-18 07:38 16.02522 -86.11256 35954 ft 405 kts 309°
2026-04-18 07:39 16.05882 -86.15953 35954 ft 405 kts 309°
2026-04-18 07:39 16.09244 -86.20662 35958 ft 405 kts 309°
2026-04-18 07:40 16.12596 -86.25377 35952 ft 405 kts 309°
2026-04-18 07:40 16.15947 -86.30086 35959 ft 405 kts 309°
2026-04-18 07:41 16.19309 -86.34801 35954 ft 405 kts 309°
2026-04-18 07:41 16.22641 -86.39486 35951 ft 405 kts 309°
2026-04-18 07:42 16.25993 -86.44210 35950 ft 405 kts 309°
2026-04-18 07:42 16.29347 -86.48930 35949 ft 405 kts 309°
2026-04-18 07:43 16.32711 -86.53652 35953 ft 408 kts 309°
2026-04-18 07:43 16.36169 -86.58451 35955 ft 417 kts 309°
2026-04-18 07:44 16.39664 -86.63285 35956 ft 419 kts 309°
2026-04-18 07:44 16.43176 -86.68137 35957 ft 419 kts 309°
2026-04-18 07:45 16.46681 -86.72979 35957 ft 419 kts 309°
2026-04-18 07:45 16.50171 -86.77797 35955 ft 419 kts 309°
2026-04-18 07:46 16.53681 -86.82639 35956 ft 419 kts 310°
2026-04-18 07:46 16.57200 -86.87489 35958 ft 419 kts 310°
2026-04-18 07:47 16.60715 -86.92331 35954 ft 419 kts 310°
2026-04-18 07:47 16.64236 -86.97179 35942 ft 419 kts 310°
2026-04-18 07:48 16.67757 -87.02016 35943 ft 419 kts 310°
2026-04-18 07:48 16.71281 -87.06882 35948 ft 421 kts 310°
2026-04-18 07:49 16.74810 -87.11760 35945 ft 421 kts 310°
2026-04-18 07:49 16.78338 -87.16634 35941 ft 421 kts 310°
2026-04-18 07:50 16.81868 -87.21508 35943 ft 421 kts 310°
2026-04-18 07:50 16.85403 -87.26386 35945 ft 421 kts 310°
2026-04-18 07:51 16.88933 -87.31253 35949 ft 421 kts 310°
2026-04-18 07:51 16.92477 -87.36135 35944 ft 421 kts 310°
2026-04-18 07:52 16.95994 -87.40972 35940 ft 421 kts 310°
2026-04-18 07:52 16.99535 -87.45838 35937 ft 421 kts 310°
2026-04-18 07:53 17.03083 -87.50712 35938 ft 421 kts 310°
2026-04-18 07:53 17.06625 -87.55608 35935 ft 423 kts 310°
2026-04-18 07:54 17.10174 -87.60528 35940 ft 424 kts 310°
2026-04-18 07:54 17.13733 -87.65457 35935 ft 424 kts 310°
2026-04-18 07:55 17.17285 -87.70374 35940 ft 424 kts 310°
2026-04-18 07:55 17.20832 -87.75262 35932 ft 424 kts 310°
2026-04-18 07:56 17.24408 -87.80174 35937 ft 424 kts 310°
2026-04-18 07:56 17.27975 -87.85074 35938 ft 423 kts 310°
2026-04-18 07:57 17.31547 -87.89975 35935 ft 423 kts 310°
2026-04-18 07:57 17.35117 -87.94872 35938 ft 423 kts 310°
2026-04-18 07:58 17.40482 -88.02223 35940 ft 424 kts 310°
2026-04-18 07:59 17.44053 -88.07107 35934 ft 425 kts 310°
2026-04-18 07:59 17.47660 -88.12015 35927 ft 425 kts 310°
2026-04-18 08:00 17.51289 -88.16920 35932 ft 426 kts 310°
2026-04-18 08:00 17.54923 -88.21827 35933 ft 426 kts 310°
2026-04-18 08:01 17.58556 -88.26729 35928 ft 426 kts 310°
2026-04-18 08:01 17.62189 -88.31627 35930 ft 426 kts 310°
2026-04-18 08:02 17.65830 -88.36532 35934 ft 426 kts 310°
2026-04-18 08:02 17.67629 -88.38955 35931 ft 415 kts 310°
2026-04-18 08:02 17.69362 -88.41297 35914 ft 399 kts 310°
2026-04-18 08:02 17.71029 -88.43558 35907 ft 384 kts 310°
2026-04-18 08:03 17.72627 -88.45733 35903 ft 369 kts 310°
2026-04-18 08:03 17.75698 -88.49920 35899 ft 360 kts 310°
2026-04-18 08:04 17.78763 -88.54067 35901 ft 360 kts 310°
2026-04-18 08:04 17.81837 -88.58223 35902 ft 360 kts 310°
2026-04-18 08:05 17.84889 -88.62348 35900 ft 360 kts 310°
2026-04-18 08:05 17.87962 -88.66499 35900 ft 360 kts 310°
2026-04-18 08:06 17.91036 -88.70649 35906 ft 360 kts 311°
2026-04-18 08:06 17.94106 -88.74793 35904 ft 359 kts 311°
2026-04-18 08:07 17.97175 -88.78934 35907 ft 358 kts 310°
2026-04-18 08:07 18.00237 -88.83064 35905 ft 358 kts 310°
2026-04-18 08:08 18.03301 -88.87192 35903 ft 358 kts 310°
2026-04-18 08:08 18.06353 -88.91297 35902 ft 358 kts 310°
2026-04-18 08:09 18.09424 -88.95426 35906 ft 358 kts 311°
2026-04-18 08:09 18.12497 -88.99552 35906 ft 358 kts 311°
2026-04-18 08:10 18.15570 -89.03677 35904 ft 358 kts 311°
2026-04-18 08:10 18.18643 -89.07800 35902 ft 358 kts 311°
2026-04-18 08:11 18.21726 -89.11933 35904 ft 358 kts 310°
2026-04-18 08:11 18.24803 -89.16056 35903 ft 358 kts 310°
2026-04-18 08:12 18.27884 -89.20184 35906 ft 358 kts 310°
2026-04-18 08:12 18.30947 -89.24283 35904 ft 358 kts 311°
2026-04-18 08:13 18.34025 -89.28399 35903 ft 357 kts 311°
2026-04-18 08:13 18.37100 -89.32516 35901 ft 357 kts 311°
2026-04-18 08:14 18.40174 -89.36630 35901 ft 357 kts 310°
2026-04-18 08:14 18.43253 -89.40742 35898 ft 357 kts 310°
2026-04-18 08:15 18.46326 -89.44809 35896 ft 356 kts 310°
2026-04-18 08:15 18.49414 -89.48888 35894 ft 356 kts 311°
2026-04-18 08:16 18.52507 -89.52971 35895 ft 356 kts 311°
2026-04-18 08:16 18.55603 -89.57056 35893 ft 356 kts 311°
2026-04-18 08:17 18.58707 -89.61148 35889 ft 356 kts 311°
2026-04-18 08:17 18.61797 -89.65221 35891 ft 356 kts 310°
2026-04-18 08:18 18.64871 -89.69272 35890 ft 356 kts 310°
2026-04-18 08:18 18.67966 -89.73349 35883 ft 356 kts 310°
2026-04-18 08:19 18.71062 -89.77423 35881 ft 356 kts 311°
2026-04-18 08:19 18.74162 -89.81498 35879 ft 356 kts 312°
2026-04-18 08:20 18.77266 -89.85577 35883 ft 356 kts 311°
2026-04-18 08:20 18.80375 -89.89635 35881 ft 355 kts 311°
2026-04-18 08:21 18.83496 -89.93686 35881 ft 355 kts 310°
2026-04-18 08:21 18.86617 -89.97736 35881 ft 355 kts 310°
2026-04-18 08:22 18.89738 -90.01776 35875 ft 354 kts 311°
2026-04-18 08:22 18.92851 -90.05790 35876 ft 353 kts 312°
2026-04-18 08:23 18.95975 -90.09815 35879 ft 353 kts 312°
2026-04-18 08:23 18.99072 -90.13804 35879 ft 353 kts 311°
2026-04-18 08:24 19.02193 -90.17820 35869 ft 353 kts 310°
2026-04-18 08:24 19.05303 -90.21821 35869 ft 352 kts 310°
2026-04-18 08:25 19.08408 -90.25814 35873 ft 352 kts 311°
2026-04-18 08:25 19.10990 -90.29131 35871 ft 352 kts 311°
2026-04-18 08:26 19.14619 -90.33760 35871 ft 351 kts 312°
2026-04-18 08:26 19.17745 -90.37723 35871 ft 351 kts 312°
2026-04-18 08:27 19.20372 -90.41034 35868 ft 350 kts 311°
2026-04-18 08:27 19.23489 -90.44945 35868 ft 350 kts 311°
2026-04-18 08:28 19.26635 -90.48890 35868 ft 350 kts 310°
2026-04-18 08:28 19.29779 -90.52829 35867 ft 350 kts 311°
2026-04-18 08:29 19.32927 -90.56767 35865 ft 350 kts 311°
2026-04-18 08:29 19.36077 -90.60710 35867 ft 350 kts 312°
2026-04-18 08:30 19.39224 -90.64649 35862 ft 350 kts 312°
2026-04-18 08:30 19.42371 -90.68584 35863 ft 350 kts 312°
2026-04-18 08:31 19.45522 -90.72522 35864 ft 350 kts 311°
2026-04-18 08:31 19.48683 -90.76435 35859 ft 349 kts 311°
2026-04-18 08:32 19.51865 -90.80315 35859 ft 349 kts 311°
2026-04-18 08:32 19.54517 -90.83536 35860 ft 349 kts 311°